This is the latest recevied weather packets stored in our database for station/object W4DEX-2. If no packets are shown the sender has not sent any weather packets the latest 10 day(s).
| Time | Temp. | Humidity | Pressure | Rain* | Wind** | Luminosity | Snow |
|---|---|---|---|---|---|---|---|
| 1778161502 | 18.33° C | 89% | 1009.6 hPa | 0 mm | 5.36 m/s, 180° | - | - |
| 1778161202 | 18.33° C | 89% | 1009.5 hPa | 0 mm | 4.92 m/s, 180° | - | - |
| 1778160902 | 18.33° C | 89% | 1009.4 hPa | 0 mm | 4.92 m/s, 181° | - | - |
| 1778159702 | 18.33° C | 89% | 1009.5 hPa | 0 mm | 5.36 m/s, 178° | - | - |
| 1778159102 | 18.33° C | 89% | 1009.5 hPa | 0 mm | 5.36 m/s, 174° | - | - |
| 1778158802 | 18.33° C | 89% | 1009.7 hPa | 0 mm | 5.36 m/s, 180° | - | - |
| 1778158503 | 18.33° C | 89% | 1010 hPa | 0 mm | 4.47 m/s, 180° | - | - |
| 1778157902 | 18.33° C | 89% | 1009.6 hPa | 0 mm | 4.02 m/s, 182° | - | - |
| 1778157602 | 18.33° C | 89% | 1009.7 hPa | 0 mm | 4.02 m/s, 182° | - | - |
| 1778157303 | 18.33° C | 89% | 1009.6 hPa | 1.02 mm | 4.47 m/s, 179° | - | - |
| 1778156102 | 18.33° C | 89% | 1009.2 hPa | 0 mm | 3.58 m/s, 187° | - | - |
| 1778155802 | 18.33° C | 89% | 1009.1 hPa | 0 mm | 4.47 m/s, 177° | - | - |
| 1778155502 | 18.33° C | 89% | 1009.2 hPa | 0 mm | 4.47 m/s, 179° | - | - |
| 1778155202 | 18.33° C | 89% | 1009.3 hPa | 0.51 mm | 4.02 m/s, 177° | - | - |
| 1778154903 | 18.33° C | 89% | 1009.4 hPa | 0.51 mm | 3.58 m/s, 178° | - | - |
| 1778154003 | 18.33° C | 89% | 1009.5 hPa | 0 mm | 4.92 m/s, 180° | - | - |
| 1778153402 | 18.33° C | 89% | 1009.4 hPa | 0 mm | 4.92 m/s, 179° | - | - |
| 1778153102 | 18.33° C | 89% | 1009.5 hPa | 0 mm | 5.36 m/s, 178° | - | - |
| 1778152803 | 18.33° C | 89% | 1009.6 hPa | 0 mm | 5.81 m/s, 180° | - | - |
| 1778152503 | 18.33° C | 89% | 1009.5 hPa | 0 mm | 5.36 m/s, 178° | - | - |
| 1778151602 | 17.78° C | 89% | 1009.5 hPa | 0 mm | 5.36 m/s, 180° | - | - |
| 1778151302 | 17.78° C | 89% | 1009.4 hPa | 0 mm | 5.81 m/s, 176° | - | - |
| 1778151010 | 17.78° C | 89% | 1009.2 hPa | 0 mm | 4.02 m/s, 172° | - | - |
| 1778150702 | 17.78° C | 89% | 1009.3 hPa | 0 mm | 4.92 m/s, 180° | - | - |
| 1778150402 | 17.78° C | 89% | 1009.1 hPa | 0 mm | 4.92 m/s, 179° | - | - |
* Rain latest hour (hover to see other rain measurements)
** Current wind speed in m/s (hover to see current wind gust speed)